Regional Weather Roundup
Issued by NWS Upton, NY

Current Version | Previous Version | Graphics & Text | Print | Product List | Glossary Off
Versions: 1 2 3 4 5 6 7 8 9 10 11 12 13 14 15 16 17 18 19 20 21 22 23 24 25 26 27 28 29 30 31 32 33 34 35 36 37 38 39 40 41 42 43 44 45 46 47 48 49 50

000
ASUS41 KOKX 250405
RWROKX

REGIONAL WEATHER ROUNDUP
NATIONAL WEATHER SERVICE NEW YORK NY
1200 AM EDT FRI JUL 25 2014

NOTE: "FAIR" INDICATES FEW OR NO CLOUDS BELOW 12,000 FEET WITH NO
SIGNIFICANT WEATHER AND/OR OBSTRUCTIONS TO VISIBILITY.

NYZ071-072-176-178-NJZ106-104-250500-
NEW YORK CITY METRO AREA


CITY           SKY/WX    TMP DP  RH WIND       PRES   REMARKS
CENTRAL PARK   MOCLDY    73  52  47 MISG      29.94S
LAGUARDIA APRT MOCLDY    73  57  57 N9        29.90S
KENNEDY INTL   MOCLDY    74  56  53 N10       29.91R
NEWARK/LIBERTY MOCLDY    72  52  49 N13       29.91S
BRNX BOT. GARD   N/A     70  55  60 W3        29.93R
TETERBORO      PTCLDY    72  51  47 NW7       29.91R
$$

NYZ177-179-078>081-250500-
LONG ISLAND NEW YORK

CITY           SKY/WX    TMP DP  RH WIND       PRES   REMARKS
FARMINGDALE    MOCLDY    71  57  61 N6        29.90S
ISLIP          CLOUDY    72  59  63 N8        29.88S
SHIRLEY        CLOUDY    69  59  70 N5        29.89F
WESTHAMPTON    CLOUDY    67  65  93 CALM      29.90S
MONTAUK POINT    N/A     68  64  87 CALM      29.91R
$$

NYZ052-065-067-250500-
HUDSON VALLEY

CITY           SKY/WX    TMP DP  RH WIND       PRES   REMARKS
WHITE PLAINS   PTCLDY    66  57  72 NW8       29.92R
NEWBURGH       CLEAR     63  57  82 CALM      29.96R
MONTGOMERY     PTCLDY    61  53  75 NE3       29.94R
POUGHKEEPSIE   PTCLDY    63  59  87 CALM      29.93R
ALBANY         PTCLDY    64  52  64 NW6       29.96R
$$

NJZ001-105-106-008-010-013-015-019>022-104-250500-
NEW JERSEY

CITY           SKY/WX    TMP DP  RH WIND       PRES   REMARKS
NEWARK/LIBERTY MOCLDY    72  52  49 N13       29.91S
TETERBORO      PTCLDY    72  51  47 NW7       29.91R
CALDWELL       MOCLDY    68  51  54 CALM      29.93R
MORRISTOWN     MOCLDY    68  52  56 N3        29.94R
SOMERVILLE     PTCLDY    66  54  65 NW3       29.92R
LINDEN         FAIR      73  53  49 N7        29.94R
SUSSEX         PTCLDY    62  55  77 CALM      29.95R
ANDOVER          N/A     59  56  89 CALM      29.96S
TRENTON        MOCLDY    68  54  60 N7        29.92S
MILLVILLE      CLOUDY    67  58  72 N6        29.92S
ATLANTIC CITY  CLOUDY    68  66  93 NW7       29.91R
WRIGHTSTOWN    MOCLDY    69  55  61 NW9       29.89S
TOMS RIVER     CLOUDY    68  55  64 CALM      29.90S
BELMAR         CLOUDY    72  55  56 N7        29.90S
$$

PAZ047>061-062-071-250500-
EASTERN PENNSYLVANIA

CITY           SKY/WX    TMP DP  RH WIND       PRES   REMARKS
PHILADELPHIA   PTCLDY    72  52  49 N9        29.93R
ALLENTOWN      PTCLDY    62  52  69 CALM      29.96R
SCRANTON       CLEAR     57  49  74 CALM      30.00R
$$

CTZ002-004>006-009-010-012-RIZ004-006-007-MAZ004-011-015-250500-
SOUTHERN NEW ENGLAND
 IN CT

CITY           SKY/WX    TMP DP  RH WIND       PRES   REMARKS
BRADLEY INTL   PTCLDY    64  55  72 NW3       29.91R
HARTFORD       MOCLDY    67  55  65 NE7       29.91R
DANBURY        PTCLDY    65  54  67 VRB3      29.94R
WTRBRY/OXFORD  PTCLDY    64  55  72 N7        29.94S
BRIDGEPORT     MOCLDY    72  58  61 N8        29.90R
MERIDEN        MOCLDY    65  59  81 CALM      29.91R
NEW HAVEN      MOCLDY    69  57  65 N3        29.90S
CHESTER        FAIR      64  63  94 NW3       29.91F
GROTON         MOCLDY    65  64  97 N3        29.89S
WILLIMANTIC    CLOUDY    66  60  81 CALM      29.91R

 IN RI

CITY           SKY/WX    TMP DP  RH WIND       PRES   REMARKS
PROVIDENCE     MOCLDY    68  61  78 NE6       29.90S
BLOCK ISLAND   CLOUDY    66  63  88 CALM      29.90S
WESTERLY       MOCLDY    68  64  87 CALM      29.91R

 IN MA

CITY           SKY/WX    TMP DP  RH WIND       PRES   REMARKS
BOSTON         MOCLDY    63  61  93 SE3       29.91R
WORCESTER      CLOUDY    66  52  60 N5        29.95R
WESTFIELD      PTCLDY    62  57  83 NW3       29.92R
PROVINCETOWN   CLOUDY    63  63 100 NW3       29.90R
NANTUCKET      MOCLDY    63  61  93 N3        29.88R
$$

ANZ330-335-338-340-345-350-353-355-250500-
COASTAL MARINE OBSERVATIONS


STATION/POSITION TIME  SKY/WX   TEMP    WIND        PRES    VSBY  WAVE
                                AIR SEA DIR/SP/G                  HT/PER
                 (UTC)          (F)     (DEG/KT/KT) (MB)    (MI)  (FT/S)
NY HARB ENTRANCE NOT AVBL
4S FIRE IS       NOT AVBL
23SW MTP         0400            70 72              1011.7          3/ 8
HUDSON CANYON    0400            73 74  310/  8/ 10 1011.3          3/ 9
EXECUTION ROCKS  0400            72 72  340/ 10/ 12   N/A
WESTERN LI SOUND 0400            71     350/  8/ 10   N/A           0
CENTRAL LI SOUND 0300            71 71  130/  6/  8   N/A           1
EASTERN LI SOUND 0300            67 67   20/  2/  4   N/A
ROBBINS REEF     0400            74     350/ 11/ 15   N/A
$$


>>>>>>>>>>>>>>>>>>>>>>>>>>>> KEY <<<<<<<<<<<<<<<<<<<<<<<<<<<
>                                                          <
>     SKY/WX - SKY CONDITION/PRESENT WEATHER               <
>     TMP    - TEMPERATURE IN FAHRENHEIT                   <
>     DP     - DEWPOINT IN FAHRENHEIT                      <
>     RH     - RELATIVE HUMIDITY IN PERCENT                <
>     WIND   - DIRECTION AND SPEED IN MPH                  <
>     PRES   - MEAN SEA LEVEL PRESSURE IN INCHES OF HG     <
>     WCI    - WIND CHILL INDEX                            <
>     VSB    - VISIBILITY IN MILES                         <
>     HX     - HEAT INDEX                                  <
>     TC     - TEMPERATURE IN CELSIUS                      <
>     VRB    - VARIABLE WIND DIRECTION                     <
>                                                          <
>>>>>>>>>>>>>>>>>>>>>>>>>>>> KEY <<<<<<<<<<<<<<<<<<<<<<<<<<<




USA.gov is the U.S. government's official web portal to all federal, state and local government web resources and services.